Location: ??????????
(31.2156°N, 29.9553°E)
Time: 04:45:36
(UTC+00:00)

Okean-O - Pass Details

Date: 03 March 2021
Orbit: 639 x 640 km, 98.2° (Epoch: 14 April)

Event Time Altitude Azimuth Distance (km) Brightness Sun altitude
Rises 16:39:59 0° 158° (SSE) 2,929 5.8 -9.4°
Reaches altitude 10° 16:42:12 10° 154° (SSE) 2,024 5.0 -9.8°
Maximum altitude 16:46:32 59° 76° (ENE) 741 2.6 -10.8°
Drops below altitude 10° 16:50:54 10° 356° (N) 2,035 5.3 -11.7°
Sets 16:53:08 0° 353° (N) 2,948 6.1 -12.2°
